Location: College Park
(38.9810°N, 76.9370°W)
Time: 13:25:19
(UTC-04:00)

Vanguard 2 Rocket - Visible Passes

Search period start: 20 May 2018 00:00
Search period end: 30 May 2018 00:00
Orbit: 554 x 3327 km, 32.9° (Epoch: 19 May)

Date Brightness Start Highest point End Pass type
(mag) Time Alt. Az. Time Alt. Az. Time Alt. Az.
20 May 9.3 02:10:45 23° SE 02:10:45 23° SE 02:15:23 10° SE visible
20 May 9.1 04:16:42 20° SW 04:19:36 23° SSW 04:29:36 10° SSE visible
20 May 7.5 22:48:33 10° WSW 22:50:31 26° SW 22:50:31 26° SW visible
21 May 9.1 03:21:58 24° S 03:21:58 24° S 03:29:12 10° SSE visible
21 May 6.8 21:50:01 10° SW 21:53:36 32° SSE 21:54:43 28° SE visible
22 May 9.9 02:27:17 13° SE 02:27:17 13° SE 02:28:30 10° SE visible
22 May 9.5 04:33:14 14° SSW 04:34:03 14° SSW 04:39:35 10° S visible
22 May 7.1 20:51:30 10° SW 20:54:40 23° SSE 20:58:05 10° ESE visible
22 May 7.7 23:02:53 10° WSW 23:04:38 24° SW 23:04:38 24° SW visible
23 May 9.8 03:38:32 13° S 03:38:32 13° S 03:40:37 10° S visible
23 May 6.6 22:04:11 10° WSW 22:07:52 38° S 22:08:39 35° SSE visible
24 May 6.7 21:05:23 10° SW 21:08:54 31° S 21:12:37 10° ESE visible
24 May 8.1 23:17:19 10° WSW 23:18:26 18° WSW 23:18:26 18° WSW visible
25 May 6.5 22:18:31 10° WSW 22:22:12 38° S 22:22:22 38° S visible
26 May 6.6 21:19:33 10° WSW 21:23:12 36° S 21:26:15 15° ESE visible
26 May 8.6 23:31:53 10° WSW 23:32:04 11° WSW 23:32:04 11° WSW visible
27 May 6.9 22:32:58 10° WSW 22:35:56 31° SSW 22:35:56 31° SSW visible
28 May 6.6 21:33:53 10° WSW 21:37:32 35° S 21:39:47 20° SE visible
29 May 7.7 22:47:36 10° WSW 22:49:26 20° SW 22:49:26 20° SW visible
